This is the latest recevied weather packets stored in our database for station/object KF6ILA. If no packets are shown the sender has not sent any weather packets the latest 1 day(s).
| Time | Temp. | Humidity | Pressure | Rain* | Wind** | Luminosity | Snow |
|---|---|---|---|---|---|---|---|
| 1778032812 | 6.11° C | 90% | 1011.4 hPa | 0 mm | 4.47 m/s, 264° | 18 W/m² | - |
| 1778032514 | 6.11° C | 90% | 1011.3 hPa | 0 mm | 5.81 m/s, 266° | 26 W/m² | - |
| 1778032219 | 6.11° C | 89% | 1011.1 hPa | 0 mm | 5.81 m/s, 268° | 26 W/m² | - |
| 1778031921 | 6.11° C | 88% | 1011.1 hPa | 0 mm | 6.26 m/s, 270° | 26 W/m² | - |
| 1778031776 | 6.67° C | 87% | 1010.9 hPa | 0 mm | 5.81 m/s, 260° | 26 W/m² | - |
| 1778031624 | 6.67° C | 87% | 1010.9 hPa | 0 mm | 5.81 m/s, 260° | 26 W/m² | - |
| 1778031327 | 6.67° C | 86% | 1011 hPa | 0 mm | 6.71 m/s, 266° | 35 W/m² | - |
| 1778031139 | 7.22° C | 85% | 1011.1 hPa | 0 mm | 6.71 m/s, 271° | 72 W/m² | - |
| 1778031030 | 7.22° C | 85% | 1011.1 hPa | 0 mm | 6.71 m/s, 271° | 72 W/m² | - |
| 1778030839 | 7.22° C | 84% | 1011.2 hPa | 0 mm | 5.81 m/s, 277° | 58 W/m² | - |
| 1778030733 | 7.22° C | 84% | 1011.2 hPa | 0 mm | 5.81 m/s, 277° | 58 W/m² | - |
| 1778030506 | 7.22° C | 84% | 1011.1 hPa | 0 mm | 5.36 m/s, 256° | 86 W/m² | - |
| 1778030436 | 7.22° C | 84% | 1011.1 hPa | 0 mm | 5.36 m/s, 256° | 86 W/m² | - |
| 1778030139 | 7.22° C | 83% | 1011.1 hPa | 0 mm | 6.26 m/s, 251° | 202 W/m² | - |
| 1778029842 | 7.78° C | 82% | 1011 hPa | 0 mm | 4.92 m/s, 250° | 67 W/m² | - |
| 1778028654 | 8.33° C | 81% | 1011 hPa | 0 mm | 4.47 m/s, 267° | 353 W/m² | - |
| 1778028060 | 8.33° C | 81% | 1011 hPa | 0 mm | 4.02 m/s, 262° | 84 W/m² | - |
| 1778027763 | 8.33° C | 81% | 1010.6 hPa | 0 mm | 5.36 m/s, 275° | 137 W/m² | - |
| 1778027466 | 8.89° C | 80% | 1010.6 hPa | 0 mm | 7.6 m/s, 270° | 137 W/m² | - |
| 1778027260 | 8.33° C | 81% | 1010.6 hPa | 0 mm | 4.92 m/s, 267° | 489 W/m² | - |
| 1778027169 | 8.33° C | 81% | 1010.6 hPa | 0 mm | 4.92 m/s, 267° | 489 W/m² | - |
| 1778026872 | 8.33° C | 81% | 1010.5 hPa | 0 mm | 5.81 m/s, 288° | 519 W/m² | - |
| 1778026575 | 7.78° C | 83% | 1010.4 hPa | 0 mm | 5.36 m/s, 276° | 577 W/m² | - |
| 1778026278 | 7.78° C | 83% | 1010.5 hPa | 0 mm | 5.81 m/s, 261° | 165 W/m² | - |
| 1778026021 | 7.78° C | 82% | 1010.4 hPa | 0 mm | 4.92 m/s, 266° | 176 W/m² | - |
* Rain latest hour (hover to see other rain measurements)
** Current wind speed in m/s (hover to see current wind gust speed)